Location: Gad�tanya
(48.0500°N, 20.8500°E)
Time: 11:47:51
(UTC+00:00)

Lacrosse 5 rocket - Pass Details

Date: 05 July 2020
Orbit: 465 x 631 km, 57.0° (Epoch: 14 August)

Event Time Altitude Azimuth Distance (km) Brightness Sun altitude
Rises 19:36:21 0° 274° (W) 2,818 5.7 -8.0°
Reaches altitude 10° 19:38:56 10° 286° (WNW) 1,889 5.1 -8.3°
Maximum altitude 19:42:37 27° 346° (NNW) 1,085 3.6 -8.7°
Drops below altitude 10° 19:46:08 10° 46° (NE) 1,801 4.0 -9.1°
Sets 19:48:33 0° 58° (ENE) 2,660 4.7 -9.4°
